[[{"header":{"parameterUnit":"m.s-1","parameterCategory":1,"la1":30.2991,"la2":30.254,"lo1":-89.0895,"lo2":-89.0444,"dy":0.0017,"dx":0.0017,"nx":28,"ny":28,"refTime":"2025-02-09T03:00:00:Z","depth":0,"parameterNumber":2,"parameterNumberName":"U-component_of_WINDS"},"data":[0,0,0,0,0,0,0,0,0,0,0,0,0,0,0,0,0,0,0,0,0,0,0,0,0,0,0,0,0,0,0,0,0,0,0,0,0,0,0,0,0,0,0,0,0,0,0,0,0,0,0,0,0,0,0,0,0,0,-1.7204,-1.7205,0,-1.7343,-1.7345,-1.7347,-1.7372,-1.737,-1.7369,-1.7368,-1.7515,-1.752,-1.7525,0,0,0,0,0,0,0,0,0,0,0,0,0,-1.6962,-1.6966,-1.7203,-1.7205,-1.7207,-1.7343,-1.7345,-1.7347,-1.7372,-1.737,-1.7369,-1.7368,-1.7514,-1.7519,-1.7526,0,0,0,0,0,0,0,0,0,0,0,0,0,-1.7081,-1.6967,-1.7203,-1.7236,-1.724,-1.7343,-1.7345,-1.7348,-1.7372,-1.737,-1.7369,-1.7367,-1.7512,-1.7519,-1.7526,-1.7608,0,0,-1.7549,-1.7553,0,0,0,0,0,0,0,0,-1.7074,-1.7089,-1.7229,-1.7234,-1.7239,-1.7338,-1.7314,-1.7435,-1.7373,-1.7322,-1.7368,-1.7366,-1.7458,-1.747,-1.75,-1.7615,-1.7621,-1.755,-1.7554,-1.7558,-1.756,0,0,0,0,0,0,0,-1.7066,-1.7084,-1.7259,-1.7231,-1.7237,-1.7245,-1.7259,-1.7337,-1.7398,-1.7326,-1.7328,-1.7344,-1.746,-1.7493,-1.7504,-1.7623,-1.755,-1.7556,-1.7561,-1.7564,-1.7812,-1.7814,0,0,0,0,0,0,-1.7051,-1.7077,-1.7255,-1.7263,-1.715,-1.725,-1.7267,-1.7308,-1.7397,-1.7409,-1.7346,-1.7345,-1.7481,-1.7495,-1.7509,-1.761,-1.7558,-1.7565,-1.7569,-1.781,-1.7813,-1.7815,0,0,0,0,0,0,-1.7046,-1.7067,-1.7249,-1.7171,-1.7194,-1.7256,-1.7302,-1.7312,-1.7344,-1.7412,-1.7424,-1.7367,-1.748,-1.7498,-1.7583,-1.7615,-1.7568,-1.7575,-1.7808,-1.7811,-1.7814,-1.7813,0,0,0,0,0,0,-1.7039,-1.7065,-1.7095,-1.7171,-1.7198,-1.7319,-1.7304,-1.7316,-1.7357,-1.7357,-1.7435,-1.7447,-1.748,-1.7571,-1.759,-1.7625,-1.7581,-1.7805,-1.7809,-1.7813,-1.781,-1.7815,-1.782,0,0,0,0,0,-1.703,-1.709,-1.7096,-1.7118,-1.7238,-1.7321,-1.7337,-1.7373,-1.7359,-1.7391,-1.7435,-1.7444,-1.7609,-1.758,-1.7601,-1.7639,-1.7803,-1.7808,-1.7812,-1.7808,-1.7814,-1.782,0,0,0,0,0,0,-1.7018,-1.7101,-1.7109,-1.7195,-1.725,-1.7325,-1.7366,-1.7378,-1.744,-1.7438,-1.7481,-1.7499,-1.7581,-1.7619,-1.7585,-1.7722,-1.7705,-1.7714,-1.7694,-1.7701,-1.7706,-1.7695,-1.7587,0,0,0,0,0,-1.7025,-1.7084,-1.7154,-1.7223,-1.7251,-1.7304,-1.7341,-1.7364,-1.7424,-1.7448,-1.7498,-1.7557,-1.7622,-1.7664,-1.7727,-1.7816,-1.7834,-1.7852,-1.7857,-1.7861,-1.7868,-1.7918,-1.7927,-1.783,-1.783,-1.783,0,0,-1.704,-1.7093,-1.7128,-1.7222,-1.7268,-1.733,-1.7323,-1.7389,-1.7435,-1.7458,-1.754,-1.7579,-1.7648,-1.7735,-1.7776,-1.7769,-1.7899,-1.7867,-1.7869,-1.7875,-1.7924,-1.7933,-1.7941,-1.7833,-1.7833,-1.7832,0,0,-1.71,-1.7146,-1.7208,-1.7254,-1.7323,-1.7358,-1.7373,-1.7446,-1.7472,-1.7555,-1.7574,-1.7631,-1.7742,-1.779,-1.7829,-1.7907,-1.7918,-1.7927,-1.7953,-1.8,-1.8008,-1.8015,-1.8043,-1.8052,-1.7934,-1.7934,-1.7934,0,-1.7111,-1.7203,-1.724,-1.7304,-1.7345,-1.7368,-1.7432,-1.7476,-1.7562,-1.7591,-1.7582,-1.7722,-1.777,-1.7868,-1.7887,-1.7918,-1.7937,-1.7918,-1.8004,-1.8011,-1.8018,-1.8045,-1.8055,-1.7935,-1.7935,-1.7935,-1.7935,0,-1.7213,-1.7277,-1.732,-1.7401,-1.7448,-1.7512,-1.7559,-1.7602,-1.7621,-1.7657,-1.7741,-1.78,-1.7875,-1.7901,-1.7921,-1.8002,-1.7996,-1.7995,-1.7978,-1.8027,-1.8053,-1.8064,-1.7936,-1.7935,-1.7935,-1.7935,0,0,-1.7268,-1.7369,-1.7384,-1.7421,-1.75,-1.755,-1.7616,-1.7689,-1.7725,-1.7784,-1.7841,-1.7934,-1.7934,-1.7978,-1.8004,-1.8046,-1.8104,-1.8041,-1.8043,-1.805,-1.8197,-1.8197,-1.8208,-1.8112,-1.8115,-1.8116,-1.8191,0,-1.7337,-1.7453,-1.7488,-1.7586,-1.7645,-1.7668,-1.7726,-1.7781,-1.7816,-1.7873,-1.7914,-1.7979,-1.7974,-1.8001,-1.8044,-1.8088,-1.8134,-1.8083,-1.8166,-1.8168,-1.8147,-1.8222,-1.8221,-1.8289,-1.8202,-1.8204,-1.8205,0,-1.7432,-1.7491,-1.7595,-1.7665,-1.7692,-1.7742,-1.7812,-1.7866,-1.7929,-1.7952,-1.8002,-1.8024,-1.8095,-1.8075,-1.8173,-1.8137,-1.8174,-1.8201,-1.8204,-1.8213,-1.8189,-1.8231,-1.8312,-1.8321,-1.8221,-1.822,-1.8219,0,-1.746,-1.7567,-1.7643,-1.7674,-1.7758,-1.7793,-1.7831,-1.7892,-1.7933,-1.7995,-1.8023,-1.8092,-1.813,-1.8184,-1.8225,-1.8207,-1.832,-1.8303,-1.8341,-1.834,-1.8363,-1.8361,-1.8449,-1.8388,-1.8388,-1.8387,-1.8387,0,-1.7532,-1.7595,-1.7656,-1.7703,-1.7774,-1.7814,-1.7884,-1.7922,-1.7977,-1.8032,-1.8057,-1.8108,-1.8159,-1.8218,-1.8251,-1.8327,-1.8345,-1.8366,-1.8373,-1.8363,-1.836,-1.8386,-1.8382,-1.839,-1.839,-1.8389,-1.8389,0,-1.7576,-1.762,-1.7704,-1.7776,-1.7796,-1.7845,-1.7908,-1.7955,-1.7992,-1.8061,-1.808,-1.8139,-1.8209,-1.8255,-1.8346,-1.8367,-1.845,-1.8458,-1.8428,-1.8432,-1.8467,-1.8463,-1.8575,-1.8592,-1.852,-1.852,-1.8521,0,-1.7618,-1.7667,-1.7745,-1.7782,-1.7819,-1.7881,-1.7923,-1.7965,-1.8009,-1.8084,-1.8122,-1.8194,-1.8253,-1.8365,-1.8416,-1.8485,-1.8494,-1.8529,-1.8504,-1.8492,-1.8494,-1.849,-1.8495,-1.8532,-1.8532,-1.8533,-1.8533,0,-1.7689,-1.7708,-1.7768,-1.7835,-1.7884,-1.794,-1.7995,-1.8025,-1.8077,-1.8125,-1.8196,-1.8243,-1.8334,-1.8405,-1.8479,-1.8519,-1.8535,-1.8541,-1.8553,-1.8542,-1.8523,-1.8533,-1.8438,-1.8538,-1.8537,-1.8537,-1.8537,-1.8536,-1.7733,-1.7777,-1.7838,-1.7904,-1.795,-1.8001,-1.8048,-1.8091,-1.8151,-1.8227,-1.8249,-1.8324,-1.8387,-1.8488,-1.8529,-1.8589,-1.8585,-1.8603,-1.8607,-1.8611,-1.8611,-1.8514,-1.8603,-1.8602,-1.8602,-1.8602,-1.8602,0,-1.7804,-1.7845,-1.7905,-1.7981,-1.8033,-1.8042,-1.8105,-1.8147,-1.8212,-1.8269,-1.8327,-1.8409,-1.8478,-1.8535,-1.8607,-1.8644,-1.8653,-1.8661,-1.8658,-1.8667,-1.861,-1.8592,-1.8652,-1.8652,-1.8652,-1.8652,-1.8652,-1.8652,-1.7847,-1.7922,-1.7949,-1.8047,-1.8088,-1.8159,-1.8194,-1.8242,-1.8287,-1.8378,-1.8435,-1.8471,-1.8528,-1.8604,-1.8668,-1.8683,-1.8708,-1.8715,-1.8731,-1.8677,-1.8671,-1.8666,-1.8649,-1.872,-1.872,-1.8783,-1.8784,-1.8784]},{"header":{"parameterUnit":"m.s-1","parameterCategory":1,"la1":30.2991,"la2":30.254,"lo1":-89.0895,"lo2":-89.0444,"dy":0.0017,"dx":0.0017,"nx":28,"ny":28,"refTime":"2025-02-09T03:00:00:Z","depth":0,"parameterNumber":3,"parameterNumberName":"V-component_of_WINDS"},"data":[0,0,0,0,0,0,0,0,0,0,0,0,0,0,0,0,0,0,0,0,0,0,0,0,0,0,0,0,0,0,0,0,0,0,0,0,0,0,0,0,0,0,0,0,0,0,0,0,0,0,0,0,0,0,0,0,0,0,1.0353,1.0354,0,1.0427,1.0428,1.0429,1.0418,1.0417,1.0416,1.0414,1.0486,1.0489,1.0492,0,0,0,0,0,0,0,0,0,0,0,0,0,1.02,1.0203,1.0353,1.0354,1.0355,1.0427,1.0428,1.0429,1.0418,1.0417,1.0415,1.0414,1.0485,1.0489,1.0492,0,0,0,0,0,0,0,0,0,0,0,0,0,1.0269,1.0204,1.0353,1.0358,1.036,1.0427,1.0428,1.0429,1.0419,1.0417,1.0415,1.0413,1.0484,1.0488,1.0493,1.0558,0,0,1.0507,1.0509,0,0,0,0,0,0,0,0,1.0265,1.0275,1.0357,1.0358,1.036,1.0412,1.04,1.0472,1.0419,1.0396,1.0414,1.0412,1.0462,1.0469,1.0486,1.0561,1.0564,1.0507,1.051,1.0512,1.0513,0,0,0,0,0,0,0,1.0261,1.0272,1.0382,1.0358,1.036,1.0356,1.0364,1.0414,1.0438,1.0398,1.0397,1.0406,1.0463,1.0482,1.0488,1.0565,1.0507,1.0511,1.0514,1.0516,1.0697,1.0699,0,0,0,0,0,0,1.0255,1.0268,1.038,1.0384,1.0307,1.0361,1.0369,1.0397,1.0438,1.0443,1.0408,1.0406,1.0475,1.0483,1.049,1.0569,1.0512,1.0516,1.0519,1.0695,1.0697,1.07,0,0,0,0,0,0,1.0252,1.0265,1.0377,1.0326,1.034,1.0365,1.0396,1.0399,1.0418,1.0446,1.045,1.0423,1.0474,1.0484,1.0541,1.0571,1.0518,1.0522,1.0692,1.0696,1.0698,1.0727,0,0,0,0,0,0,1.0247,1.0264,1.0289,1.0327,1.0343,1.0428,1.0398,1.0402,1.0427,1.0424,1.0461,1.0465,1.0473,1.0535,1.0546,1.0577,1.0526,1.069,1.0694,1.0697,1.0723,1.073,1.0737,0,0,0,0,0,1.0242,1.0293,1.0291,1.0304,1.0375,1.0429,1.0438,1.0448,1.0429,1.0454,1.0472,1.0464,1.0567,1.0541,1.0553,1.0586,1.0688,1.0693,1.0697,1.072,1.0729,1.0737,0,0,0,0,0,0,1.0257,1.0298,1.0296,1.0361,1.0392,1.0427,1.046,1.0457,1.0492,1.0489,1.0498,1.0506,1.0564,1.0581,1.0551,1.0651,1.0624,1.0632,1.0638,1.0646,1.0653,1.0647,1.053,0,0,0,0,0,1.0268,1.031,1.0343,1.0398,1.0414,1.0434,1.0458,1.0463,1.0494,1.0507,1.0529,1.0559,1.0598,1.0623,1.0661,1.0726,1.0734,1.0755,1.0762,1.0767,1.0773,1.0809,1.0818,1.0715,1.0715,1.0715,0,0,1.0291,1.0319,1.0344,1.0402,1.0426,1.0468,1.0445,1.049,1.0521,1.0513,1.0569,1.0586,1.062,1.0682,1.0711,1.0698,1.0803,1.0773,1.0777,1.078,1.0814,1.0824,1.0833,1.0718,1.0718,1.0717,0,0,1.0355,1.038,1.0429,1.0454,1.0492,1.0506,1.0517,1.0554,1.0566,1.0622,1.0618,1.0654,1.0721,1.0746,1.0767,1.0841,1.0835,1.0853,1.0888,1.0922,1.0931,1.0938,1.0964,1.0973,1.0859,1.0859,1.0859,0,1.0378,1.0442,1.0453,1.0499,1.0524,1.0522,1.057,1.0594,1.0642,1.0659,1.0645,1.0729,1.0752,1.082,1.0838,1.0856,1.0868,1.0848,1.0929,1.0936,1.0943,1.0968,1.0978,1.0861,1.0861,1.0861,1.0861,0,1.0468,1.0513,1.0547,1.0595,1.0624,1.0671,1.0689,1.0717,1.072,1.0735,1.0792,1.082,1.0863,1.088,1.0882,1.0948,1.0939,1.0927,1.09,1.0955,1.0978,1.0988,1.0864,1.0863,1.0863,1.0862,0,0,1.0541,1.0597,1.0609,1.0631,1.0674,1.0707,1.0754,1.0798,1.0822,1.0855,1.0894,1.0952,1.0941,1.0965,1.0971,1.1002,1.1058,1.0986,1.0987,1.0998,1.1132,1.114,1.1151,1.1055,1.1057,1.1059,1.1129,0,1.0608,1.0692,1.0705,1.0778,1.0819,1.0818,1.0859,1.0889,1.0905,1.0941,1.0958,1.0998,1.0982,1.0996,1.1027,1.1045,1.1085,1.104,1.109,1.1092,1.108,1.1163,1.1172,1.1236,1.1138,1.114,1.1141,0,1.0696,1.0734,1.0812,1.085,1.0868,1.0905,1.0946,1.0981,1.1015,1.1024,1.1053,1.1055,1.1102,1.1075,1.1141,1.111,1.1131,1.1143,1.1146,1.115,1.1119,1.1168,1.1257,1.1267,1.1155,1.1154,1.1153,0,1.0741,1.0811,1.0867,1.0886,1.0932,1.0958,1.0978,1.101,1.1036,1.1072,1.1089,1.113,1.1151,1.1182,1.1195,1.1174,1.126,1.1233,1.1268,1.1267,1.1284,1.1283,1.1377,1.13,1.13,1.13,1.1299,0,1.0813,1.0861,1.0888,1.0922,1.0976,1.099,1.1042,1.1061,1.109,1.1127,1.1129,1.1164,1.1179,1.1216,1.1226,1.1279,1.1289,1.1296,1.1298,1.1296,1.1295,1.1309,1.1304,1.1302,1.1302,1.1301,1.1301,0,1.0871,1.0891,1.0952,1.0991,1.1002,1.104,1.1073,1.1106,1.1122,1.1169,1.1181,1.1206,1.125,1.1266,1.1319,1.1326,1.1386,1.1385,1.1375,1.1375,1.1408,1.1405,1.1514,1.1529,1.1443,1.1443,1.1444,0,1.0915,1.0952,1.0996,1.1022,1.1043,1.1085,1.1112,1.1127,1.1155,1.1198,1.1225,1.1269,1.1305,1.1375,1.1397,1.1437,1.1436,1.1472,1.1442,1.1439,1.1436,1.1433,1.1437,1.1477,1.1478,1.1479,1.1479,0,1.0991,1.0999,1.1039,1.1083,1.1115,1.115,1.1184,1.1204,1.1225,1.1256,1.1302,1.133,1.1385,1.1428,1.147,1.1489,1.1488,1.1489,1.1499,1.1496,1.1488,1.1492,1.1389,1.1486,1.1485,1.1485,1.1484,1.1484,1.1042,1.1075,1.1112,1.1156,1.1184,1.1216,1.1249,1.127,1.1309,1.1356,1.1363,1.1412,1.1445,1.1502,1.1523,1.1561,1.1551,1.1565,1.1569,1.1572,1.1574,1.1484,1.1569,1.1568,1.1568,1.1568,1.1568,0,1.1118,1.1142,1.1183,1.1231,1.1266,1.1263,1.1301,1.1329,1.1373,1.1405,1.1442,1.1494,1.1537,1.1563,1.1605,1.1631,1.1631,1.1641,1.1639,1.1643,1.1581,1.1568,1.164,1.164,1.164,1.164,1.164,1.164,1.1161,1.1217,1.123,1.13,1.1323,1.1373,1.1394,1.1423,1.1449,1.1509,1.1545,1.1563,1.1592,1.1637,1.1676,1.1683,1.1698,1.1709,1.1714,1.1655,1.1648,1.164,1.1628,1.1712,1.1712,1.1774,1.1774,1.1774]}]]